Location: Poughquag
(41.6090°N, 73.6820°W)
Time: 11:32:08
(UTC-04:00)

Tiros 1 despin weight - Pass Details

Date: 29 May 2020
Orbit: 593 x 642 km, 48.2° (Epoch: 07 July)

Event Time Altitude Azimuth Distance (km) Brightness Sun altitude
Rises 17:17:35 0° 297° (WNW) 2,869 ? 31.7°
Reaches altitude 10° 17:19:54 10° 296° (WNW) 1,954 ? 31.3°
Maximum altitude 17:24:22 74° 211° (SSW) 626 ? 30.4°
Drops below altitude 10° 17:28:46 10° 127° (SE) 1,923 ? 29.6°
Sets 17:31:02 0° 125° (SE) 2,819 ? 29.2°
